COSMOS 1275 DEB, 13804

Orbit data source: Space-Track

COSMOS 1275 DEB, 13804 is space debris in LEO originally from a launch on Thu, 04 Jun 1981 UTC launched from the Plesetsk Missile And Space Complex (PKMTR). Debris objects in space refer to the collection of defunct objects orbiting the Earth. Examples of debris include non-operational satellites, rocket bodies, and fragments generated from explosions, collisions, or faulty payload assembly.

Loading next visibility...
Identifier
13804, 1981-053GY
Orbit
LEO
Country
Flag of CISCIS
Related business
Manufacturer
Unknown
Mission
Spacecraft
Bus & Motor
Unknown
Mass
Unknown
Launch date (UTC)
1981-06-04 (44 years ago)
Launch vehicle
Unknown
Launch site
Plesetsk Missile And Space Complex (PKMTR)
Object type
Payload
Rocket body
Debris
Shape & HBR
Unknown shape, 0.1 m
Radar Cross Section
Small (<0.1 m²)

Expand to show TLE details & history
Last TLE update: 22 hours ago

TLE from 22 hours ago
0 COSMOS 1275 DEB
1 13804U 81053GY  25288.85189792  .00007569  00000-0  27336-2 0  9997
2 13804  82.9425  72.7104 0037554  61.8370  89.7770 14.33069105185765
Epoch: 2025-10-15T20:26Z
TLE epoch observation values (Epoch: 2025-10-15T20:26:43.980Z)
Latitude
27.76715°
Longitude
-82.31036°
Altitude
784.952 km
Speed
7.464 km/s
True Right ascension
16h 35m 58s
True Declination
27° 37' 34"
Sunlit
Object was in daylight at epoch
Visualization orbit readout
Latitude
Unknown
Longitude
Unknown
Altitude
Unknown
Speed
Unknown
Apparent Right ascension
Unknown
Apparent Declination
Unknown
Sunlit
N/A
Visualization observer readout
Local Sidereal Time
13:11:05
Azimuth
Unknown
Elevation
Unknown
Doppler factor
Unknown
Orbital elements
Apogee altitude
805.435 km
Perigee altitude
751.683 km
Semi-major axis
7,156.696 km
Eccentricity
0.00376
Inclination
82.9425°
RAAN
72.7104°
Arg. of periapsis
61.837°
True anomaly
90.20734°
Mean anomaly
89.777°
Eccentric anomaly
89.99217°
Mean motion
3.58488 °/min
Orbital period
100.42 mins
BSTAR
0.0027336
Loading maneuver chart data...
Computing Atmospheric mass density...

Documentation

Showing up to 5 results
|